Manhattan, KS

10:39 PM CST on December 06, 2019 (GMT -0600)
Manhattan Regional

Weather History for KMHK - November, 2019

Change the Weather History Date:

Thursday, November 14, 2019

  Actual Average Record
Temperature  
Mean Temperature 38 °F 43 °F  
Max Temperature 52 °F 56 °F 71 °F (2015)
Min Temperature 24 °F 31 °F 7 °F (2014)
Degree Days  
Heating Degree Days 27 22  
Month to date heating degree days 368 264  
Since 1 July heating degree days 801 663  
Cooling Degree Days 0 0  
Month to date cooling degree days 0 0  
Year to date cooling degree days 1610 1361  
Moisture  
Dew Point 26 °F    
Average Humidity 66    
Maximum Humidity 89    
Minimum Humidity 37    
Precipitation  
Precipitation 0.00 in 0.05 in 0.23 in (2002)
Month to date precipitation T 0.93  
Year to date precipitation 40.84 30.86  
Sea Level Pressure  
Sea Level Pressure 30.34 in    
Wind  
Wind Speed 3 mph ()    
Max Wind Speed 13 mph    
Max Gust Speed 19 mph    
Visibility 10.0 miles    
Events      
T = Trace of Precipitation, MM = Missing Value Source: Averaged Metar Reports

Daily Weather History Graph

Daily Weather History Graph

Search for Another Location

Airport or City:

Astronomy

Nov. 14, 2019 Rise Set
Actual Time 7:08 AM CST 5:13 PM CST
Civil Twilight 6:40 AM CST 5:41 PM CST
Nautical Twilight 6:07 AM CST 6:13 PM CST
Astronomical Twilight 5:36 AM CST 6:45 PM CST
Moon 7:00 PM CST (11/14) 9:04 AM CST (11/14)
Length of Visible Light 11h 01m
Length of Day
10h 04m
Waning Gibbous, 95% of the Moon is Illuminated
Nov 14
Waning Gibbous
Nov 19
Last Quarter
Nov 26
New
Dec 4
First Quarter
Dec 11
Full

Hourly Weather History & Observations

Time (CST) Temp. Windchill Dew Point Humidity Pressure Visibility Wind Dir Wind Speed Gust Speed Precip Events Conditions
12:52 AM 33.1 °F 30.0 °F 26.1 °F 75% 30.21 in 10.0 mi WNW 3.5 mph - N/A   Overcast
1:52 AM 33.1 °F - 25.0 °F 72% 30.23 in 10.0 mi Calm Calm - N/A   Overcast
2:49 AM 35.6 °F 32.8 °F 28.4 °F 75% 30.23 in 10.0 mi SW 3.5 mph - N/A   Overcast
2:52 AM 36.0 °F 33.3 °F 28.0 °F 73% 30.25 in 10.0 mi SW 3.5 mph - N/A   Overcast
3:29 AM 35.1 °F - 28.0 °F 76% 30.24 in 10.0 mi Calm Calm - N/A   Overcast
4:52 AM 39.0 °F 36.8 °F 30.9 °F 73% 30.30 in 10.0 mi North 3.5 mph - N/A   Overcast
5:52 AM 36.0 °F 33.3 °F 30.0 °F 79% 30.32 in 10.0 mi NNE 3.5 mph - N/A   Overcast
6:52 AM 33.1 °F 30.0 °F 30.0 °F 89% 30.35 in 10.0 mi NW 3.5 mph - N/A   Clear
7:52 AM 33.1 °F 30.0 °F 28.9 °F 85% 30.38 in 10.0 mi NNW 3.5 mph - N/A   Clear
9:52 AM 42.1 °F 37.7 °F 28.0 °F 58% 30.41 in 10.0 mi North 6.9 mph - N/A   Clear
10:52 AM 45.0 °F 40.1 °F 27.0 °F 49% 30.42 in 10.0 mi NNW 9.2 mph - N/A   Clear
11:52 AM 46.0 °F 41.9 °F 27.0 °F 47% 30.40 in 10.0 mi North 8.1 mph 18.4 mph N/A   Clear
12:52 PM 48.9 °F - 25.0 °F 39% 30.38 in 10.0 mi North 8.1 mph 18.4 mph N/A   Clear
1:52 PM 50.0 °F - 26.1 °F 39% 30.36 in 10.0 mi North 8.1 mph 18.4 mph N/A   Clear
2:52 PM 52.0 °F - 26.1 °F 37% 30.34 in 10.0 mi Variable 4.6 mph - N/A   Clear
3:52 PM 51.1 °F - 26.1 °F 38% 30.34 in 10.0 mi Calm Calm - N/A   Clear
4:52 PM 48.0 °F - 26.1 °F 42% 30.35 in 10.0 mi North 3.5 mph - N/A   Clear
5:52 PM 37.9 °F - 25.0 °F 60% 30.38 in 10.0 mi Calm Calm - N/A   Clear
6:52 PM 34.0 °F - 25.0 °F 70% 30.40 in 10.0 mi Calm Calm - N/A   Clear
7:52 PM 30.0 °F - 24.1 °F 79% 30.41 in 10.0 mi Calm Calm - N/A   Clear
9:52 PM 26.1 °F - 21.9 °F 84% 30.41 in 10.0 mi Calm Calm - N/A   Clear
10:52 PM 25.0 °F - 21.0 °F 85% 30.41 in 10.0 mi Calm Calm - N/A   Clear
11:52 PM 25.0 °F - 21.0 °F 85% 30.41 in 10.0 mi Calm Calm - N/A   Clear